Wetterdaten: Mittwoch, 18.07.2007
Datum Zeit Temp. I. Temp. A. Feuchte A. Luftdruck Regen Wind
18.07.2007 00:00 24,4 C 23,1 C 62 % 1012 hPa 0,0 l/m 0,0 km/h (0 Bft)
18.07.2007 00:03 24,4 C 23,0 C 62 % 1012 hPa 0,0 l/m 0,0 km/h (0 Bft)
18.07.2007 00:06 24,4 C 23,0 C 62 % 1012 hPa 0,0 l/m 0,0 km/h (0 Bft)
18.07.2007 00:09 24,4 C 23,0 C 62 % 1012 hPa 0,0 l/m 0,0 km/h (0 Bft)
18.07.2007 00:12 24,3 C 23,0 C 62 % 1012 hPa 0,0 l/m 0,0 km/h (0 Bft)
18.07.2007 00:15 24,3 C 23,0 C 62 % 1012 hPa 0,0 l/m 0,0 km/h (0 Bft)
18.07.2007 00:18 24,3 C 22,9 C 62 % 1012 hPa 0,0 l/m 0,0 km/h (0 Bft)
18.07.2007 00:21 24,3 C 22,9 C 62 % 1012 hPa 0,0 l/m 0,0 km/h (0 Bft)
18.07.2007 00:24 24,3 C 22,9 C 62 % 1012 hPa 0,0 l/m 0,0 km/h (0 Bft)
18.07.2007 00:27 24,3 C 22,8 C 63 % 1012 hPa 0,0 l/m 0,0 km/h (0 Bft)
18.07.2007 00:30 24,3 C 22,8 C 62 % 1012 hPa 0,0 l/m 0,0 km/h (0 Bft)
18.07.2007 00:33 24,3 C 22,8 C 62 % 1012 hPa 0,0 l/m 0,0 km/h (0 Bft)
18.07.2007 00:36 24,3 C 22,8 C 63 % 1012 hPa 0,0 l/m 0,0 km/h (0 Bft)
18.07.2007 00:39 24,3 C 22,8 C 63 % 1012 hPa 0,0 l/m 0,0 km/h (0 Bft)
18.07.2007 00:42 24,3 C 22,8 C 63 % 1012 hPa 0,0 l/m 0,0 km/h (0 Bft)
18.07.2007 00:45 24,3 C 22,9 C 62 % 1012 hPa 0,0 l/m 0,4 km/h (0 Bft)
18.07.2007 00:48 24,3 C 23,0 C 62 % 1012 hPa 0,0 l/m 1,0 km/h (0 Bft)
18.07.2007 00:51 24,3 C 23,0 C 62 % 1012 hPa 0,0 l/m 1,0 km/h (0 Bft)
18.07.2007 00:54 24,3 C 23,0 C 62 % 1012 hPa 0,0 l/m 3,4 km/h (1 Bft)
18.07.2007 00:57 24,3 C 23,0 C 63 % 1012 hPa 0,0 l/m 4,3 km/h (1 Bft)
18.07.2007 01:00 24,3 C 23,0 C 63 % 1013 hPa 0,0 l/m 5,7 km/h (1 Bft)
18.07.2007 01:03 24,3 C 22,8 C 63 % 1013 hPa 0,0 l/m 10,0 km/h (2 Bft)
18.07.2007 01:06 24,3 C 22,8 C 63 % 1013 hPa 0,0 l/m 12,3 km/h (3 Bft)
18.07.2007 01:09 24,3 C 22,9 C 63 % 1013 hPa 0,0 l/m 10,9 km/h (2 Bft)
18.07.2007 01:12 24,3 C 23,0 C 62 % 1013 hPa 0,0 l/m 1,0 km/h (0 Bft)
18.07.2007 01:15 24,3 C 23,0 C 63 % 1013 hPa 0,0 l/m 0,0 km/h (0 Bft)
18.07.2007 01:18 24,3 C 23,0 C 63 % 1013 hPa 0,0 l/m 0,7 km/h (0 Bft)
18.07.2007 01:21 24,3 C 23,0 C 63 % 1013 hPa 0,0 l/m 2,7 km/h (1 Bft)
18.07.2007 01:24 24,3 C 23,0 C 63 % 1013 hPa 0,0 l/m 10,3 km/h (2 Bft)
18.07.2007 01:27 24,3 C 22,9 C 63 % 1013 hPa 0,0 l/m 9,4 km/h (2 Bft)
18.07.2007 01:30 24,3 C 22,9 C 64 % 1013 hPa 0,0 l/m 0,0 km/h (0 Bft)
18.07.2007 01:33 24,3 C 22,9 C 64 % 1013 hPa 0,0 l/m 0,0 km/h (0 Bft)
18.07.2007 01:36 24,3 C 22,8 C 63 % 1013 hPa 0,0 l/m 0,2 km/h (0 Bft)
18.07.2007 01:39 24,3 C 22,8 C 63 % 1013 hPa 0,0 l/m 1,1 km/h (1 Bft)
18.07.2007 01:42 24,3 C 22,8 C 63 % 1013 hPa 0,0 l/m 1,1 km/h (1 Bft)
18.07.2007 01:45 24,3 C 22,8 C 64 % 1013 hPa 0,0 l/m 9,8 km/h (2 Bft)
18.07.2007 01:49 24,3 C 22,7 C 64 % 1013 hPa 0,0 l/m 0,7 km/h (0 Bft)
18.07.2007 01:52 24,3 C 22,7 C 64 % 1013 hPa 0,0 l/m 0,4 km/h (0 Bft)
18.07.2007 01:55 24,3 C 22,7 C 64 % 1013 hPa 0,0 l/m 0,1 km/h (0 Bft)
18.07.2007 01:58 24,3 C 22,7 C 64 % 1013 hPa 0,0 l/m 0,7 km/h (0 Bft)
18.07.2007 02:01 24,3 C 22,7 C 64 % 1013 hPa 0,0 l/m 1,8 km/h (1 Bft)
18.07.2007 02:04 24,3 C 22,7 C 64 % 1013 hPa 0,0 l/m 0,1 km/h (0 Bft)
18.07.2007 02:07 24,3 C 22,7 C 63 % 1013 hPa 0,0 l/m 9,0 km/h (2 Bft)
18.07.2007 02:10 24,3 C 22,7 C 63 % 1013 hPa 0,0 l/m 0,3 km/h (0 Bft)
18.07.2007 02:13 24,3 C 22,8 C 64 % 1013 hPa 0,0 l/m 2,5 km/h (1 Bft)
18.07.2007 02:16 24,3 C 22,7 C 64 % 1013 hPa 0,0 l/m 0,1 km/h (0 Bft)
18.07.2007 02:19 24,3 C 22,6 C 65 % 1013 hPa 0,0 l/m 0,1 km/h (0 Bft)
18.07.2007 02:22 24,2 C 22,5 C 65 % 1013 hPa 0,0 l/m 0,0 km/h (0 Bft)
18.07.2007 02:25 24,2 C 22,4 C 65 % 1013 hPa 0,0 l/m 0,7 km/h (0 Bft)
18.07.2007 02:28 24,2 C 22,4 C 66 % 1013 hPa 0,0 l/m 0,0 km/h (0 Bft)
18.07.2007 02:31 24,2 C 22,3 C 66 % 1013 hPa 0,0 l/m 1,5 km/h (1 Bft)
18.07.2007 02:34 24,2 C 22,3 C 66 % 1013 hPa 0,0 l/m 1,2 km/h (1 Bft)
18.07.2007 02:37 24,2 C 22,3 C 66 % 1013 hPa 0,0 l/m 1,2 km/h (1 Bft)
18.07.2007 02:40 24,2 C 22,2 C 67 % 1012 hPa 0,0 l/m 1,2 km/h (1 Bft)
18.07.2007 02:43 24,2 C 22,2 C 67 % 1012 hPa 0,0 l/m 4,6 km/h (1 Bft)
18.07.2007 02:46 24,1 C 22,2 C 67 % 1012 hPa 0,0 l/m 5,1 km/h (1 Bft)
18.07.2007 02:49 24,2 C 22,2 C 67 % 1012 hPa 0,0 l/m 4,8 km/h (1 Bft)
18.07.2007 02:52 24,2 C 22,2 C 67 % 1012 hPa 0,0 l/m 0,9 km/h (0 Bft)
18.07.2007 02:55 24,2 C 22,2 C 67 % 1012 hPa 0,0 l/m 1,0 km/h (0 Bft)
18.07.2007 02:58 24,2 C 22,2 C 67 % 1012 hPa 0,0 l/m 1,2 km/h (1 Bft)
18.07.2007 03:01 24,2 C 22,2 C 67 % 1012 hPa 0,0 l/m 0,6 km/h (0 Bft)
18.07.2007 03:04 24,2 C 22,2 C 67 % 1012 hPa 0,0 l/m 0,0 km/h (0 Bft)
18.07.2007 03:07 24,2 C 22,1 C 67 % 1012 hPa 0,0 l/m 0,0 km/h (0 Bft)
18.07.2007 03:10 24,2 C 21,8 C 68 % 1012 hPa 0,0 l/m 0,0 km/h (0 Bft)
18.07.2007 03:13 24,2 C 21,7 C 68 % 1012 hPa 0,0 l/m 0,0 km/h (0 Bft)
18.07.2007 03:16 24,2 C 21,7 C 69 % 1012 hPa 0,0 l/m 0,0 km/h (0 Bft)
18.07.2007 03:19 24,1 C 21,6 C 69 % 1012 hPa 0,0 l/m 0,0 km/h (0 Bft)
18.07.2007 03:22 24,0 C 21,6 C 69 % 1012 hPa 0,0 l/m 0,0 km/h (0 Bft)
18.07.2007 03:25 24,0 C 21,6 C 69 % 1012 hPa 0,0 l/m 0,0 km/h (0 Bft)
18.07.2007 03:28 24,0 C 21,4 C 69 % 1012 hPa 0,0 l/m 0,0 km/h (0 Bft)
18.07.2007 03:31 23,9 C 21,4 C 69 % 1012 hPa 0,0 l/m 0,0 km/h (0 Bft)
18.07.2007 03:34 23,9 C 21,4 C 70 % 1012 hPa 0,0 l/m 0,0 km/h (0 Bft)
18.07.2007 03:37 23,9 C 21,4 C 70 % 1012 hPa 0,0 l/m 0,0 km/h (0 Bft)
18.07.2007 03:40 23,9 C 21,3 C 70 % 1012 hPa 0,0 l/m 0,0 km/h (0 Bft)
18.07.2007 03:43 23,8 C 21,2 C 70 % 1012 hPa 0,0 l/m 0,0 km/h (0 Bft)
18.07.2007 03:46 23,8 C 21,2 C 70 % 1012 hPa 0,0 l/m 0,0 km/h (0 Bft)
18.07.2007 03:49 23,8 C 21,2 C 70 % 1012 hPa 0,0 l/m 0,0 km/h (0 Bft)
18.07.2007 03:52 23,8 C 21,2 C 70 % 1012 hPa 0,0 l/m 0,0 km/h (0 Bft)
18.07.2007 03:55 23,8 C 21,1 C 70 % 1012 hPa 0,0 l/m 0,0 km/h (0 Bft)
18.07.2007 03:58 23,8 C 21,0 C 70 % 1012 hPa 0,0 l/m 0,0 km/h (0 Bft)
18.07.2007 04:01 23,7 C 21,0 C 70 % 1012 hPa 0,0 l/m 0,0 km/h (0 Bft)
18.07.2007 04:04 23,7 C 20,9 C 71 % 1012 hPa 0,0 l/m 0,0 km/h (0 Bft)
18.07.2007 04:07 23,7 C 20,9 C 71 % 1012 hPa 0,0 l/m 0,0 km/h (0 Bft)
18.07.2007 04:10 23,7 C 20,8 C 71 % 1012 hPa 0,0 l/m 0,0 km/h (0 Bft)
18.07.2007 04:13 23,7 C 20,8 C 71 % 1012 hPa 0,0 l/m 0,0 km/h (0 Bft)
18.07.2007 04:16 23,7 C 20,8 C 72 % 1012 hPa 0,0 l/m 0,2 km/h (0 Bft)
18.07.2007 04:19 23,7 C 20,7 C 72 % 1012 hPa 0,0 l/m 0,6 km/h (0 Bft)
18.07.2007 04:22 23,7 C 20,8 C 72 % 1012 hPa 0,0 l/m 0,0 km/h (0 Bft)
18.07.2007 04:25 23,6 C 20,8 C 71 % 1012 hPa 0,0 l/m 0,0 km/h (0 Bft)
18.07.2007 04:28 23,6 C 20,8 C 72 % 1012 hPa 0,0 l/m 0,0 km/h (0 Bft)
18.07.2007 04:31 23,6 C 20,8 C 71 % 1012 hPa 0,0 l/m 0,0 km/h (0 Bft)
18.07.2007 04:34 23,6 C 20,8 C 71 % 1012 hPa 0,0 l/m 0,0 km/h (0 Bft)
18.07.2007 04:37 23,6 C 20,8 C 71 % 1012 hPa 0,0 l/m 0,0 km/h (0 Bft)
18.07.2007 04:39 23,6 C 20,8 C 72 % 1012 hPa 0,0 l/m 0,0 km/h (0 Bft)
18.07.2007 04:42 23,6 C 20,8 C 72 % 1012 hPa 0,0 l/m 0,0 km/h (0 Bft)
18.07.2007 04:45 23,6 C 20,8 C 72 % 1012 hPa 0,0 l/m 0,0 km/h (0 Bft)
18.07.2007 04:48 23,6 C 20,7 C 71 % 1012 hPa 0,0 l/m 0,0 km/h (0 Bft)
18.07.2007 04:51 23,6 C 20,7 C 71 % 1012 hPa 0,0 l/m 0,0 km/h (0 Bft)
18.07.2007 04:54 23,6 C 20,8 C 70 % 1012 hPa 0,0 l/m 0,0 km/h (0 Bft)
18.07.2007 04:57 23,5 C 20,7 C 71 % 1012 hPa 0,0 l/m 0,0 km/h (0 Bft)
18.07.2007 05:00 23,5 C 20,5 C 72 % 1012 hPa 0,0 l/m 0,0 km/h (0 Bft)
18.07.2007 05:03 23,4 C 20,3 C 72 % 1012 hPa 0,0 l/m 0,0 km/h (0 Bft)
18.07.2007 05:06 23,4 C 20,2 C 73 % 1012 hPa 0,0 l/m 0,0 km/h (0 Bft)
18.07.2007 05:09 23,4 C 20,0 C 73 % 1012 hPa 0,0 l/m 0,0 km/h (0 Bft)
18.07.2007 05:12 23,3 C 20,1 C 73 % 1012 hPa 0,0 l/m 0,0 km/h (0 Bft)
18.07.2007 05:15 23,3 C 20,2 C 73 % 1012 hPa 0,0 l/m 0,0 km/h (0 Bft)
18.07.2007 05:18 23,3 C 20,2 C 74 % 1012 hPa 0,0 l/m 0,0 km/h (0 Bft)
18.07.2007 05:21 23,3 C 20,2 C 74 % 1012 hPa 0,0 l/m 0,0 km/h (0 Bft)
18.07.2007 05:24 23,4 C 20,2 C 74 % 1012 hPa 0,0 l/m 0,0 km/h (0 Bft)
18.07.2007 05:27 23,4 C 20,3 C 73 % 1012 hPa 0,0 l/m 0,0 km/h (0 Bft)
18.07.2007 05:30 23,4 C 20,3 C 73 % 1012 hPa 0,0 l/m 0,0 km/h (0 Bft)
18.07.2007 05:33 23,4 C 20,4 C 73 % 1012 hPa 0,0 l/m 0,0 km/h (0 Bft)
18.07.2007 05:36 23,4 C 20,4 C 73 % 1012 hPa 0,0 l/m 0,0 km/h (0 Bft)
18.07.2007 05:39 23,4 C 20,4 C 73 % 1012 hPa 0,0 l/m 0,0 km/h (0 Bft)
18.07.2007 05:42 23,4 C 20,4 C 72 % 1012 hPa 0,0 l/m 0,0 km/h (0 Bft)
18.07.2007 05:45 23,4 C 20,4 C 72 % 1012 hPa 0,0 l/m 0,0 km/h (0 Bft)
18.07.2007 05:48 23,4 C 20,4 C 72 % 1012 hPa 0,0 l/m 0,0 km/h (0 Bft)
18.07.2007 05:51 23,4 C 20,4 C 73 % 1012 hPa 0,0 l/m 0,0 km/h (0 Bft)
18.07.2007 05:54 23,4 C 20,4 C 73 % 1012 hPa 0,0 l/m 0,0 km/h (0 Bft)
18.07.2007 05:57 23,4 C 20,3 C 73 % 1012 hPa 0,0 l/m 0,0 km/h (0 Bft)
18.07.2007 06:00 23,4 C 20,3 C 74 % 1012 hPa 0,0 l/m 0,0 km/h (0 Bft)
18.07.2007 06:03 23,4 C 20,3 C 73 % 1012 hPa 0,0 l/m 0,0 km/h (0 Bft)
18.07.2007 06:06 23,4 C 20,3 C 73 % 1012 hPa 0,0 l/m 0,0 km/h (0 Bft)
18.07.2007 06:09 23,4 C 20,3 C 73 % 1012 hPa 0,0 l/m 0,0 km/h (0 Bft)
18.07.2007 06:12 23,4 C 20,3 C 74 % 1012 hPa 0,0 l/m 0,0 km/h (0 Bft)
18.07.2007 06:15 23,4 C 20,3 C 74 % 1012 hPa 0,0 l/m 0,0 km/h (0 Bft)
18.07.2007 06:18 23,3 C 20,3 C 74 % 1012 hPa 0,0 l/m 0,0 km/h (0 Bft)
18.07.2007 06:21 23,3 C 20,2 C 74 % 1012 hPa 0,0 l/m 0,0 km/h (0 Bft)
18.07.2007 06:24 23,3 C 20,2 C 74 % 1012 hPa 0,0 l/m 0,0 km/h (0 Bft)
18.07.2007 06:27 23,3 C 20,2 C 75 % 1012 hPa 0,0 l/m 0,0 km/h (0 Bft)
18.07.2007 06:30 23,2 C 20,1 C 75 % 1012 hPa 0,0 l/m 0,0 km/h (0 Bft)
18.07.2007 06:33 23,3 C 20,1 C 75 % 1012 hPa 0,0 l/m 0,0 km/h (0 Bft)
18.07.2007 06:36 23,2 C 20,0 C 76 % 1012 hPa 0,0 l/m 0,0 km/h (0 Bft)
18.07.2007 06:39 23,2 C 20,0 C 76 % 1012 hPa 0,0 l/m 0,0 km/h (0 Bft)
18.07.2007 06:42 23,2 C 20,0 C 76 % 1012 hPa 0,0 l/m 0,0 km/h (0 Bft)
18.07.2007 06:45 23,2 C 20,0 C 76 % 1012 hPa 0,0 l/m 0,0 km/h (0 Bft)
18.07.2007 06:48 23,2 C 20,2 C 76 % 1012 hPa 0,0 l/m 0,0 km/h (0 Bft)
18.07.2007 06:51 23,2 C 20,2 C 76 % 1012 hPa 0,0 l/m 0,0 km/h (0 Bft)
18.07.2007 06:54 23,3 C 20,4 C 75 % 1012 hPa 0,0 l/m 0,0 km/h (0 Bft)
18.07.2007 06:57 23,4 C 20,5 C 75 % 1012 hPa 0,0 l/m 0,0 km/h (0 Bft)
18.07.2007 07:00 23,5 C 20,6 C 75 % 1012 hPa 0,0 l/m 0,0 km/h (0 Bft)
18.07.2007 07:03 23,5 C 20,7 C 75 % 1012 hPa 0,0 l/m 0,0 km/h (0 Bft)
18.07.2007 07:06 23,6 C 20,8 C 75 % 1012 hPa 0,0 l/m 0,0 km/h (0 Bft)
18.07.2007 07:09 23,6 C 20,9 C 75 % 1012 hPa 0,0 l/m 0,0 km/h (0 Bft)
18.07.2007 07:12 23,8 C 21,0 C 75 % 1012 hPa 0,0 l/m 0,0 km/h (0 Bft)
18.07.2007 07:15 23,8 C 21,2 C 74 % 1012 hPa 0,0 l/m 0,0 km/h (0 Bft)
18.07.2007 07:18 23,8 C 21,3 C 73 % 1012 hPa 0,0 l/m 0,0 km/h (0 Bft)
18.07.2007 07:21 23,8 C 21,4 C 73 % 1012 hPa 0,0 l/m 0,0 km/h (0 Bft)
18.07.2007 07:24 23,9 C 21,4 C 73 % 1012 hPa 0,0 l/m 0,0 km/h (0 Bft)
18.07.2007 07:27 23,9 C 21,5 C 74 % 1012 hPa 0,0 l/m 0,0 km/h (0 Bft)
18.07.2007 07:30 23,9 C 21,5 C 74 % 1012 hPa 0,0 l/m 0,0 km/h (0 Bft)
18.07.2007 07:33 24,0 C 21,7 C 73 % 1012 hPa 0,0 l/m 0,0 km/h (0 Bft)
18.07.2007 07:36 24,0 C 21,8 C 73 % 1012 hPa 0,0 l/m 0,0 km/h (0 Bft)
18.07.2007 07:39 24,0 C 22,0 C 73 % 1012 hPa 0,0 l/m 0,0 km/h (0 Bft)
18.07.2007 07:42 24,0 C 22,2 C 72 % 1012 hPa 0,0 l/m 0,0 km/h (0 Bft)
18.07.2007 07:45 24,0 C 22,3 C 72 % 1012 hPa 0,0 l/m 0,0 km/h (0 Bft)
18.07.2007 07:48 24,0 C 22,3 C 72 % 1012 hPa 0,0 l/m 0,0 km/h (0 Bft)
18.07.2007 07:51 24,1 C 22,5 C 72 % 1013 hPa 0,0 l/m 0,0 km/h (0 Bft)
18.07.2007 07:54 24,0 C 22,5 C 72 % 1013 hPa 0,0 l/m 0,0 km/h (0 Bft)
18.07.2007 07:57 24,1 C 22,7 C 72 % 1013 hPa 0,0 l/m 0,0 km/h (0 Bft)
18.07.2007 08:00 24,1 C 22,8 C 71 % 1013 hPa 0,0 l/m 0,0 km/h (0 Bft)
18.07.2007 08:03 24,1 C 22,9 C 71 % 1013 hPa 0,0 l/m 0,0 km/h (0 Bft)
18.07.2007 08:06 24,2 C 22,9 C 70 % 1013 hPa 0,0 l/m 0,0 km/h (0 Bft)
18.07.2007 08:09 24,2 C 23,0 C 70 % 1013 hPa 0,0 l/m 0,0 km/h (0 Bft)
18.07.2007 08:12 24,2 C 23,1 C 69 % 1013 hPa 0,0 l/m 0,0 km/h (0 Bft)
18.07.2007 08:15 24,2 C 23,2 C 69 % 1013 hPa 0,0 l/m 0,0 km/h (0 Bft)
18.07.2007 08:18 24,2 C 23,2 C 69 % 1013 hPa 0,0 l/m 0,0 km/h (0 Bft)
18.07.2007 08:21 24,2 C 23,2 C 69 % 1013 hPa 0,0 l/m 0,0 km/h (0 Bft)
18.07.2007 08:24 24,2 C 23,3 C 67 % 1013 hPa 0,0 l/m 0,0 km/h (0 Bft)
18.07.2007 08:27 24,2 C 23,4 C 67 % 1013 hPa 0,0 l/m 0,0 km/h (0 Bft)
18.07.2007 08:30 24,2 C 23,4 C 67 % 1013 hPa 0,0 l/m 0,0 km/h (0 Bft)
18.07.2007 08:33 24,2 C 23,4 C 67 % 1013 hPa 0,0 l/m 0,5 km/h (0 Bft)
18.07.2007 08:36 24,2 C 23,6 C 66 % 1013 hPa 0,0 l/m 7,5 km/h (2 Bft)
18.07.2007 08:39 24,2 C 23,7 C 65 % 1013 hPa 0,0 l/m 0,2 km/h (0 Bft)
18.07.2007 08:42 24,2 C 23,8 C 65 % 1013 hPa 0,0 l/m 0,9 km/h (0 Bft)
18.07.2007 08:45 24,2 C 23,9 C 65 % 1013 hPa 0,0 l/m 6,4 km/h (2 Bft)
18.07.2007 08:48 24,3 C 24,0 C 64 % 1013 hPa 0,0 l/m 0,3 km/h (0 Bft)
18.07.2007 08:51 24,3 C 24,3 C 64 % 1013 hPa 0,0 l/m 0,0 km/h (0 Bft)
18.07.2007 08:54 24,3 C 24,4 C 64 % 1013 hPa 0,0 l/m 0,1 km/h (0 Bft)
18.07.2007 08:57 24,3 C 24,6 C 64 % 1013 hPa 0,0 l/m 1,3 km/h (1 Bft)
18.07.2007 09:00 24,3 C 24,6 C 63 % 1013 hPa 0,0 l/m 9,0 km/h (2 Bft)
18.07.2007 09:03 24,3 C 24,8 C 63 % 1013 hPa 0,0 l/m 7,2 km/h (2 Bft)
18.07.2007 09:06 24,3 C 24,8 C 62 % 1013 hPa 0,0 l/m 8,9 km/h (2 Bft)
18.07.2007 09:09 24,3 C 24,8 C 62 % 1013 hPa 0,0 l/m 9,9 km/h (2 Bft)
18.07.2007 09:13 24,3 C 24,9 C 62 % 1013 hPa 0,0 l/m 10,2 km/h (2 Bft)
18.07.2007 09:16 24,4 C 24,9 C 61 % 1013 hPa 0,0 l/m 4,0 km/h (1 Bft)
18.07.2007 09:19 24,4 C 24,9 C 62 % 1013 hPa 0,0 l/m 8,1 km/h (2 Bft)
18.07.2007 09:22 24,4 C 25,0 C 62 % 1013 hPa 0,0 l/m 9,3 km/h (2 Bft)
18.07.2007 09:25 24,4 C 25,1 C 63 % 1013 hPa 0,0 l/m 4,8 km/h (1 Bft)
18.07.2007 09:28 24,4 C 25,2 C 61 % 1013 hPa 0,0 l/m 1,1 km/h (1 Bft)
18.07.2007 09:31 24,4 C 25,2 C 62 % 1013 hPa 0,0 l/m 7,6 km/h (2 Bft)
18.07.2007 09:34 24,4 C 25,3 C 61 % 1013 hPa 0,0 l/m 5,4 km/h (1 Bft)
18.07.2007 09:37 24,4 C 25,3 C 60 % 1013 hPa 0,0 l/m 3,7 km/h (1 Bft)
18.07.2007 09:40 24,4 C 25,4 C 59 % 1013 hPa 0,0 l/m 7,5 km/h (2 Bft)
18.07.2007 09:43 24,4 C 25,4 C 60 % 1013 hPa 0,0 l/m 12,2 km/h (2 Bft)
18.07.2007 09:46 24,4 C 25,4 C 60 % 1013 hPa 0,0 l/m 12,2 km/h (2 Bft)
18.07.2007 09:49 24,4 C 25,7 C 59 % 1013 hPa 0,0 l/m 9,6 km/h (2 Bft)
18.07.2007 09:52 24,4 C 25,6 C 60 % 1013 hPa 0,0 l/m 5,9 km/h (2 Bft)
18.07.2007 09:55 24,4 C 25,9 C 61 % 1013 hPa 0,0 l/m 1,3 km/h (1 Bft)
18.07.2007 09:58 24,4 C 25,9 C 61 % 1013 hPa 0,0 l/m 9,4 km/h (2 Bft)
18.07.2007 10:01 24,4 C 25,9 C 61 % 1013 hPa 0,0 l/m 9,4 km/h (2 Bft)
18.07.2007 10:04 24,4 C 25,6 C 61 % 1013 hPa 0,0 l/m 15,5 km/h (3 Bft)
18.07.2007 10:07 24,4 C 25,6 C 62 % 1013 hPa 0,0 l/m 13,3 km/h (3 Bft)
18.07.2007 10:10 24,4 C 25,6 C 62 % 1013 hPa 0,0 l/m 19,3 km/h (3 Bft)
18.07.2007 10:13 24,4 C 25,4 C 62 % 1013 hPa 0,0 l/m 18,2 km/h (3 Bft)
18.07.2007 10:16 24,4 C 25,4 C 64 % 1013 hPa 0,0 l/m 18,2 km/h (3 Bft)
18.07.2007 10:19 24,5 C 25,5 C 65 % 1013 hPa 0,0 l/m 15,6 km/h (3 Bft)
18.07.2007 10:22 24,5 C 25,6 C 64 % 1013 hPa 0,0 l/m 10,1 km/h (2 Bft)
18.07.2007 10:25 24,5 C 25,4 C 62 % 1013 hPa 0,0 l/m 16,5 km/h (3 Bft)
18.07.2007 10:28 24,5 C 25,4 C 63 % 1013 hPa 0,0 l/m 12,7 km/h (3 Bft)
18.07.2007 10:31 24,5 C 25,4 C 62 % 1013 hPa 0,0 l/m 12,6 km/h (3 Bft)
18.07.2007 10:34 24,5 C 25,5 C 63 % 1013 hPa 0,0 l/m 15,0 km/h (3 Bft)
18.07.2007 10:37 24,5 C 25,7 C 61 % 1013 hPa 0,0 l/m 7,0 km/h (2 Bft)
18.07.2007 10:40 24,5 C 25,7 C 61 % 1013 hPa 0,0 l/m 15,8 km/h (3 Bft)
18.07.2007 10:43 24,5 C 25,9 C 60 % 1013 hPa 0,0 l/m 15,6 km/h (3 Bft)
18.07.2007 10:46 24,5 C 26,1 C 61 % 1013 hPa 0,0 l/m 9,6 km/h (2 Bft)
18.07.2007 10:49 24,6 C 26,2 C 61 % 1013 hPa 0,0 l/m 7,9 km/h (2 Bft)
18.07.2007 10:52 24,5 C 26,3 C 61 % 1013 hPa 0,0 l/m 7,9 km/h (2 Bft)
18.07.2007 10:55 24,6 C 26,3 C 60 % 1013 hPa 0,0 l/m 16,9 km/h (3 Bft)
18.07.2007 10:58 24,6 C 26,3 C 61 % 1013 hPa 0,0 l/m 9,3 km/h (2 Bft)
18.07.2007 11:01 24,5 C 26,3 C 61 % 1013 hPa 0,0 l/m 11,5 km/h (2 Bft)
18.07.2007 11:04 24,5 C 26,4 C 59 % 1013 hPa 0,0 l/m 6,7 km/h (2 Bft)
18.07.2007 11:07 24,5 C 26,5 C 59 % 1013 hPa 0,0 l/m 17,9 km/h (3 Bft)
18.07.2007 11:10 24,5 C 26,4 C 57 % 1013 hPa 0,0 l/m 14,9 km/h (3 Bft)
18.07.2007 11:13 24,6 C 26,4 C 57 % 1013 hPa 0,0 l/m 15,0 km/h (3 Bft)
18.07.2007 11:16 24,6 C 26,4 C 58 % 1013 hPa 0,0 l/m 17,3 km/h (3 Bft)
18.07.2007 11:19 24,6 C 26,3 C 59 % 1013 hPa 0,0 l/m 12,6 km/h (3 Bft)
18.07.2007 11:22 24,6 C 26,3 C 59 % 1013 hPa 0,0 l/m 17,6 km/h (3 Bft)
18.07.2007 11:25 24,6 C 26,5 C 59 % 1013 hPa 0,0 l/m 18,5 km/h (3 Bft)
18.07.2007 11:28 24,6 C 26,5 C 59 % 1013 hPa 0,0 l/m 18,1 km/h (3 Bft)
18.07.2007 11:31 24,6 C 26,8 C 58 % 1013 hPa 0,0 l/m 17,8 km/h (3 Bft)
18.07.2007 11:34 24,6 C 26,8 C 58 % 1013 hPa 0,0 l/m 15,3 km/h (3 Bft)
18.07.2007 11:37 24,6 C 26,8 C 58 % 1013 hPa 0,0 l/m 17,0 km/h (3 Bft)
18.07.2007 11:40 24,6 C 27,2 C 58 % 1013 hPa 0,0 l/m 18,6 km/h (3 Bft)
18.07.2007 11:43 24,6 C 27,2 C 56 % 1013 hPa 0,0 l/m 15,5 km/h (3 Bft)
18.07.2007 11:46 24,5 C 27,2 C 59 % 1013 hPa 0,0 l/m 9,8 km/h (2 Bft)
18.07.2007 11:49 24,6 C 27,1 C 60 % 1013 hPa 0,0 l/m 9,8 km/h (2 Bft)
18.07.2007 11:52 24,6 C 26,9 C 60 % 1013 hPa 0,0 l/m 20,3 km/h (4 Bft)
18.07.2007 11:55 24,6 C 26,6 C 61 % 1013 hPa 0,0 l/m 22,0 km/h (4 Bft)
18.07.2007 11:58 24,6 C 26,7 C 60 % 1013 hPa 0,0 l/m 17,9 km/h (3 Bft)
18.07.2007 12:35 24,6 C 26,7 C 60 % 1013 hPa 0,0 l/m 20,8 km/h (4 Bft)
18.07.2007 12:38 24,6 C 26,9 C 60 % 1013 hPa 0,0 l/m 19,1 km/h (3 Bft)
18.07.2007 12:41 24,6 C 26,9 C 60 % 1013 hPa 0,0 l/m 22,3 km/h (4 Bft)
18.07.2007 12:44 24,6 C 27,0 C 58 % 1013 hPa 0,0 l/m 22,0 km/h (4 Bft)
18.07.2007 12:47 24,6 C 26,9 C 58 % 1013 hPa 0,0 l/m 21,6 km/h (4 Bft)
18.07.2007 12:50 24,6 C 26,9 C 57 % 1013 hPa 0,0 l/m 21,6 km/h (4 Bft)
18.07.2007 12:53 24,6 C 27,2 C 56 % 1013 hPa 0,0 l/m 19,3 km/h (3 Bft)
18.07.2007 12:56 24,6 C 27,4 C 54 % 1013 hPa 0,0 l/m 19,1 km/h (3 Bft)
18.07.2007 12:59 24,6 C 27,3 C 54 % 1013 hPa 0,0 l/m 20,6 km/h (4 Bft)
18.07.2007 13:02 24,6 C 27,0 C 56 % 1013 hPa 0,0 l/m 20,1 km/h (4 Bft)
18.07.2007 13:05 24,6 C 27,2 C 58 % 1014 hPa 0,0 l/m 15,8 km/h (3 Bft)
18.07.2007 13:08 24,6 C 27,4 C 57 % 1014 hPa 0,0 l/m 17,2 km/h (3 Bft)
18.07.2007 13:11 24,6 C 27,4 C 57 % 1014 hPa 0,0 l/m 19,0 km/h (3 Bft)
18.07.2007 13:13 24,6 C 27,4 C 56 % 1013 hPa 0,0 l/m 13,7 km/h (3 Bft)
18.07.2007 13:16 24,6 C 27,5 C 56 % 1013 hPa 0,0 l/m 11,9 km/h (2 Bft)
18.07.2007 13:19 24,6 C 27,4 C 57 % 1013 hPa 0,0 l/m 20,3 km/h (4 Bft)
18.07.2007 13:22 24,6 C 27,6 C 56 % 1013 hPa 0,0 l/m 15,4 km/h (3 Bft)
18.07.2007 13:25 24,6 C 27,8 C 53 % 1013 hPa 0,0 l/m 15,7 km/h (3 Bft)
18.07.2007 13:28 24,6 C 27,8 C 55 % 1013 hPa 0,0 l/m 15,3 km/h (3 Bft)
18.07.2007 13:31 24,6 C 27,8 C 56 % 1013 hPa 0,0 l/m 15,3 km/h (3 Bft)
18.07.2007 13:34 24,6 C 27,9 C 55 % 1013 hPa 0,0 l/m 12,8 km/h (3 Bft)
18.07.2007 13:37 24,6 C 27,9 C 55 % 1013 hPa 0,0 l/m 9,0 km/h (2 Bft)
18.07.2007 13:40 24,6 C 27,9 C 55 % 1013 hPa 0,0 l/m 7,8 km/h (2 Bft)
18.07.2007 13:43 24,6 C 28,1 C 53 % 1013 hPa 0,0 l/m 19,3 km/h (3 Bft)
18.07.2007 13:46 24,6 C 28,0 C 53 % 1013 hPa 0,0 l/m 16,1 km/h (3 Bft)
18.07.2007 13:49 24,6 C 27,9 C 53 % 1013 hPa 0,0 l/m 13,5 km/h (3 Bft)
18.07.2007 13:52 24,6 C 27,9 C 53 % 1013 hPa 0,0 l/m 12,0 km/h (2 Bft)
18.07.2007 13:55 24,6 C 28,0 C 53 % 1013 hPa 0,0 l/m 17,1 km/h (3 Bft)
18.07.2007 13:58 24,6 C 28,1 C 54 % 1013 hPa 0,0 l/m 13,3 km/h (3 Bft)
18.07.2007 14:01 24,6 C 28,1 C 53 % 1013 hPa 0,0 l/m 14,3 km/h (3 Bft)
18.07.2007 14:04 24,7 C 28,0 C 51 % 1013 hPa 0,0 l/m 18,8 km/h (3 Bft)
18.07.2007 14:07 24,6 C 28,1 C 53 % 1013 hPa 0,0 l/m 18,8 km/h (3 Bft)
18.07.2007 14:10 24,6 C 28,2 C 53 % 1013 hPa 0,0 l/m 18,0 km/h (3 Bft)
18.07.2007 14:12 24,6 C 28,4 C 53 % 1013 hPa 0,0 l/m 18,0 km/h (3 Bft)
18.07.2007 14:15 24,7 C 28,4 C 53 % 1013 hPa 0,0 l/m 3,4 km/h (1 Bft)
18.07.2007 14:19 24,7 C 28,4 C 52 % 1013 hPa 0,0 l/m 17,1 km/h (3 Bft)
18.07.2007 14:22 24,8 C 28,4 C 53 % 1013 hPa 0,0 l/m 9,5 km/h (2 Bft)
18.07.2007 14:25 24,8 C 28,5 C 53 % 1013 hPa 0,0 l/m 16,3 km/h (3 Bft)
18.07.2007 14:28 24,8 C 28,5 C 53 % 1013 hPa 0,0 l/m 18,3 km/h (3 Bft)
18.07.2007 14:31 24,8 C 28,5 C 53 % 1013 hPa 0,0 l/m 20,0 km/h (4 Bft)
18.07.2007 14:34 24,8 C 28,6 C 50 % 1013 hPa 0,0 l/m 14,6 km/h (3 Bft)
18.07.2007 14:37 24,8 C 28,5 C 52 % 1013 hPa 0,0 l/m 10,4 km/h (2 Bft)
18.07.2007 14:40 24,9 C 28,6 C 52 % 1013 hPa 0,0 l/m 10,3 km/h (2 Bft)
18.07.2007 14:43 24,9 C 28,6 C 50 % 1013 hPa 0,0 l/m 9,4 km/h (2 Bft)
18.07.2007 14:46 24,8 C 28,8 C 51 % 1013 hPa 0,0 l/m 14,3 km/h (3 Bft)
18.07.2007 14:49 24,9 C 28,7 C 53 % 1013 hPa 0,0 l/m 9,3 km/h (2 Bft)
18.07.2007 14:52 24,8 C 28,7 C 53 % 1013 hPa 0,0 l/m 17,0 km/h (3 Bft)
18.07.2007 14:55 24,9 C 28,8 C 50 % 1013 hPa 0,0 l/m 9,8 km/h (2 Bft)
18.07.2007 14:58 24,9 C 28,9 C 52 % 1013 hPa 0,0 l/m 15,8 km/h (3 Bft)
18.07.2007 15:01 24,8 C 28,9 C 52 % 1013 hPa 0,0 l/m 8,3 km/h (2 Bft)
18.07.2007 15:04 24,9 C 29,0 C 51 % 1013 hPa 0,0 l/m 15,3 km/h (3 Bft)
18.07.2007 15:07 24,8 C 28,9 C 49 % 1013 hPa 0,0 l/m 13,1 km/h (3 Bft)
18.07.2007 15:10 24,8 C 28,8 C 51 % 1013 hPa 0,0 l/m 8,9 km/h (2 Bft)
18.07.2007 15:13 24,8 C 28,8 C 53 % 1013 hPa 0,0 l/m 2,3 km/h (1 Bft)
18.07.2007 15:16 24,8 C 28,8 C 50 % 1013 hPa 0,0 l/m 10,6 km/h (2 Bft)
18.07.2007 15:19 24,8 C 28,8 C 50 % 1013 hPa 0,0 l/m 10,6 km/h (2 Bft)
18.07.2007 15:22 24,8 C 28,7 C 53 % 1013 hPa 0,0 l/m 7,8 km/h (2 Bft)
18.07.2007 15:25 24,8 C 28,9 C 51 % 1013 hPa 0,0 l/m 15,8 km/h (3 Bft)
18.07.2007 15:28 24,8 C 28,9 C 52 % 1013 hPa 0,0 l/m 14,7 km/h (3 Bft)
18.07.2007 15:31 24,8 C 28,9 C 52 % 1013 hPa 0,0 l/m 5,3 km/h (1 Bft)
18.07.2007 15:34 24,8 C 28,9 C 51 % 1013 hPa 0,0 l/m 4,6 km/h (1 Bft)
18.07.2007 15:37 24,8 C 28,9 C 49 % 1013 hPa 0,0 l/m 13,6 km/h (3 Bft)
18.07.2007 15:40 24,8 C 28,8 C 49 % 1013 hPa 0,0 l/m 17,1 km/h (3 Bft)
18.07.2007 15:43 24,8 C 28,8 C 52 % 1013 hPa 0,0 l/m 2,8 km/h (1 Bft)
18.07.2007 15:46 24,8 C 28,8 C 49 % 1013 hPa 0,0 l/m 2,8 km/h (1 Bft)
18.07.2007 15:49 24,8 C 28,8 C 50 % 1013 hPa 0,0 l/m 14,3 km/h (3 Bft)
18.07.2007 15:52 24,8 C 28,9 C 51 % 1013 hPa 0,0 l/m 6,7 km/h (2 Bft)
18.07.2007 15:55 24,8 C 28,9 C 51 % 1013 hPa 0,0 l/m 11,9 km/h (2 Bft)
18.07.2007 15:58 24,8 C 29,2 C 49 % 1013 hPa 0,0 l/m 2,2 km/h (1 Bft)
18.07.2007 16:01 24,8 C 29,3 C 49 % 1013 hPa 0,0 l/m 15,1 km/h (3 Bft)
18.07.2007 16:04 24,9 C 29,3 C 47 % 1013 hPa 0,0 l/m 12,4 km/h (3 Bft)
18.07.2007 16:07 24,9 C 29,4 C 47 % 1013 hPa 0,0 l/m 14,6 km/h (3 Bft)
18.07.2007 16:10 24,9 C 29,3 C 47 % 1013 hPa 0,0 l/m 13,6 km/h (3 Bft)
18.07.2007 16:13 24,9 C 29,3 C 47 % 1013 hPa 0,0 l/m 10,1 km/h (2 Bft)
18.07.2007 16:16 24,8 C 29,4 C 46 % 1013 hPa 0,0 l/m 8,6 km/h (2 Bft)
18.07.2007 16:19 24,8 C 29,4 C 45 % 1013 hPa 0,0 l/m 17,2 km/h (3 Bft)
18.07.2007 16:22 24,9 C 29,4 C 48 % 1013 hPa 0,0 l/m 12,6 km/h (3 Bft)
18.07.2007 16:25 24,8 C 29,4 C 48 % 1013 hPa 0,0 l/m 9,8 km/h (2 Bft)
18.07.2007 16:28 24,9 C 29,4 C 48 % 1013 hPa 0,0 l/m 11,3 km/h (2 Bft)
18.07.2007 16:31 24,9 C 29,6 C 48 % 1013 hPa 0,0 l/m 5,7 km/h (1 Bft)
18.07.2007 16:34 24,9 C 29,6 C 49 % 1013 hPa 0,0 l/m 12,5 km/h (3 Bft)
18.07.2007 16:37 24,9 C 29,6 C 48 % 1013 hPa 0,0 l/m 10,5 km/h (2 Bft)
18.07.2007 16:40 24,9 C 29,6 C 49 % 1013 hPa 0,0 l/m 4,4 km/h (1 Bft)
18.07.2007 16:43 24,9 C 29,6 C 49 % 1013 hPa 0,0 l/m 8,9 km/h (2 Bft)
18.07.2007 16:46 24,9 C 29,5 C 47 % 1013 hPa 0,0 l/m 13,1 km/h (3 Bft)
18.07.2007 16:49 24,9 C 29,5 C 48 % 1013 hPa 0,0 l/m 12,5 km/h (3 Bft)
18.07.2007 16:52 24,9 C 29,5 C 47 % 1013 hPa 0,0 l/m 13,3 km/h (3 Bft)
18.07.2007 16:55 24,9 C 29,5 C 51 % 1013 hPa 0,0 l/m 9,8 km/h (2 Bft)
18.07.2007 16:58 25,0 C 29,6 C 48 % 1013 hPa 0,0 l/m 12,2 km/h (2 Bft)
18.07.2007 17:01 25,0 C 29,5 C 49 % 1013 hPa 0,0 l/m 12,2 km/h (2 Bft)
18.07.2007 17:04 24,9 C 29,5 C 48 % 1013 hPa 0,0 l/m 11,1 km/h (2 Bft)
18.07.2007 17:07 24,9 C 29,5 C 51 % 1013 hPa 0,0 l/m 17,9 km/h (3 Bft)
18.07.2007 17:10 24,9 C 29,5 C 49 % 1013 hPa 0,0 l/m 10,4 km/h (2 Bft)
18.07.2007 17:13 24,9 C 29,3 C 48 % 1013 hPa 0,0 l/m 14,0 km/h (3 Bft)
18.07.2007 17:16 24,9 C 29,2 C 49 % 1013 hPa 0,0 l/m 14,1 km/h (3 Bft)
18.07.2007 17:19 24,9 C 29,2 C 50 % 1013 hPa 0,0 l/m 19,4 km/h (3 Bft)
18.07.2007 17:22 24,9 C 29,2 C 48 % 1013 hPa 0,0 l/m 15,9 km/h (3 Bft)
18.07.2007 17:25 24,9 C 29,2 C 48 % 1013 hPa 0,0 l/m 13,3 km/h (3 Bft)
18.07.2007 17:28 24,9 C 29,3 C 49 % 1013 hPa 0,0 l/m 14,6 km/h (3 Bft)
18.07.2007 17:31 24,9 C 29,4 C 48 % 1013 hPa 0,0 l/m 16,9 km/h (3 Bft)
18.07.2007 17:34 25,0 C 29,4 C 48 % 1013 hPa 0,0 l/m 20,3 km/h (4 Bft)
18.07.2007 17:37 25,0 C 29,2 C 48 % 1013 hPa 0,0 l/m 17,2 km/h (3 Bft)
18.07.2007 17:40 25,0 C 29,2 C 48 % 1013 hPa 0,0 l/m 17,2 km/h (3 Bft)
18.07.2007 17:43 25,0 C 29,2 C 48 % 1013 hPa 0,0 l/m 17,5 km/h (3 Bft)
18.07.2007 17:46 25,0 C 29,2 C 48 % 1013 hPa 0,0 l/m 14,8 km/h (3 Bft)
18.07.2007 17:49 25,0 C 29,3 C 47 % 1013 hPa 0,0 l/m 14,1 km/h (3 Bft)
18.07.2007 17:52 25,0 C 29,1 C 47 % 1013 hPa 0,0 l/m 10,8 km/h (2 Bft)
18.07.2007 17:55 25,0 C 29,1 C 49 % 1013 hPa 0,0 l/m 7,8 km/h (2 Bft)
18.07.2007 17:58 25,0 C 29,2 C 47 % 1013 hPa 0,0 l/m 16,1 km/h (3 Bft)
18.07.2007 18:01 25,0 C 29,1 C 47 % 1013 hPa 0,0 l/m 15,5 km/h (3 Bft)
18.07.2007 18:04 25,0 C 29,1 C 47 % 1013 hPa 0,0 l/m 15,2 km/h (3 Bft)
18.07.2007 18:07 25,0 C 29,0 C 48 % 1013 hPa 0,0 l/m 18,5 km/h (3 Bft)
18.07.2007 18:10 25,0 C 29,0 C 48 % 1013 hPa 0,0 l/m 15,3 km/h (3 Bft)
18.07.2007 18:13 25,0 C 28,9 C 48 % 1013 hPa 0,0 l/m 13,6 km/h (3 Bft)
18.07.2007 18:16 25,0 C 28,9 C 48 % 1013 hPa 0,0 l/m 11,1 km/h (2 Bft)
18.07.2007 18:19 25,0 C 29,0 C 48 % 1013 hPa 0,0 l/m 17,0 km/h (3 Bft)
18.07.2007 18:22 25,0 C 28,9 C 48 % 1013 hPa 0,0 l/m 12,0 km/h (2 Bft)
18.07.2007 18:25 25,0 C 29,0 C 48 % 1013 hPa 0,0 l/m 9,0 km/h (2 Bft)
18.07.2007 18:28 25,0 C 29,0 C 48 % 1013 hPa 0,0 l/m 11,2 km/h (2 Bft)
18.07.2007 18:31 25,0 C 28,9 C 48 % 1012 hPa 0,0 l/m 12,6 km/h (3 Bft)
18.07.2007 18:34 25,0 C 28,9 C 48 % 1012 hPa 0,0 l/m 11,9 km/h (2 Bft)
18.07.2007 18:37 25,0 C 28,9 C 48 % 1013 hPa 0,0 l/m 12,2 km/h (2 Bft)
18.07.2007 18:40 25,1 C 28,8 C 50 % 1012 hPa 0,0 l/m 9,3 km/h (2 Bft)
18.07.2007 18:43 25,0 C 28,8 C 50 % 1012 hPa 0,0 l/m 6,8 km/h (2 Bft)
18.07.2007 18:46 25,1 C 29,0 C 49 % 1012 hPa 0,0 l/m 9,1 km/h (2 Bft)
18.07.2007 18:49 25,0 C 28,8 C 48 % 1012 hPa 0,0 l/m 9,5 km/h (2 Bft)
18.07.2007 18:52 25,1 C 28,8 C 48 % 1012 hPa 0,0 l/m 13,6 km/h (3 Bft)
18.07.2007 18:55 25,0 C 28,8 C 49 % 1012 hPa 0,0 l/m 0,6 km/h (0 Bft)
18.07.2007 18:58 25,1 C 28,8 C 49 % 1013 hPa 0,0 l/m 7,8 km/h (2 Bft)
18.07.2007 19:01 25,1 C 28,8 C 48 % 1013 hPa 0,0 l/m 11,3 km/h (2 Bft)
18.07.2007 19:04 25,1 C 28,8 C 48 % 1013 hPa 0,0 l/m 10,5 km/h (2 Bft)
18.07.2007 19:07 25,1 C 28,8 C 48 % 1013 hPa 0,0 l/m 15,0 km/h (3 Bft)
18.07.2007 19:10 25,1 C 28,8 C 48 % 1013 hPa 0,0 l/m 11,6 km/h (2 Bft)
18.07.2007 19:13 25,0 C 28,9 C 49 % 1013 hPa 0,0 l/m 9,1 km/h (2 Bft)
18.07.2007 19:16 25,1 C 29,0 C 49 % 1013 hPa 0,0 l/m 8,9 km/h (2 Bft)
18.07.2007 19:19 25,1 C 28,9 C 48 % 1013 hPa 0,0 l/m 9,3 km/h (2 Bft)
18.07.2007 19:22 25,2 C 28,8 C 47 % 1013 hPa 0,0 l/m 13,7 km/h (3 Bft)
18.07.2007 19:25 25,1 C 28,6 C 49 % 1013 hPa 0,0 l/m 16,3 km/h (3 Bft)
18.07.2007 19:28 25,1 C 28,5 C 50 % 1013 hPa 0,0 l/m 9,2 km/h (2 Bft)
18.07.2007 19:31 25,1 C 28,4 C 49 % 1013 hPa 0,0 l/m 12,1 km/h (2 Bft)
18.07.2007 19:34 25,1 C 28,4 C 49 % 1013 hPa 0,0 l/m 14,6 km/h (3 Bft)
18.07.2007 19:37 25,1 C 28,3 C 49 % 1013 hPa 0,0 l/m 14,1 km/h (3 Bft)
18.07.2007 19:40 25,1 C 28,3 C 49 % 1013 hPa 0,0 l/m 16,8 km/h (3 Bft)
18.07.2007 19:43 25,1 C 28,3 C 49 % 1013 hPa 0,0 l/m 13,5 km/h (3 Bft)
18.07.2007 19:46 25,1 C 28,2 C 49 % 1013 hPa 0,0 l/m 13,7 km/h (3 Bft)
18.07.2007 19:49 25,1 C 28,1 C 49 % 1013 hPa 0,0 l/m 10,0 km/h (2 Bft)
18.07.2007 19:52 25,1 C 28,0 C 49 % 1013 hPa 0,0 l/m 15,1 km/h (3 Bft)
18.07.2007 19:55 25,1 C 28,0 C 50 % 1013 hPa 0,0 l/m 9,0 km/h (2 Bft)
18.07.2007 19:58 25,1 C 27,9 C 50 % 1013 hPa 0,0 l/m 13,1 km/h (3 Bft)
18.07.2007 20:01 25,1 C 27,8 C 50 % 1013 hPa 0,0 l/m 15,3 km/h (3 Bft)
18.07.2007 20:04 25,1 C 27,7 C 51 % 1013 hPa 0,0 l/m 11,3 km/h (2 Bft)
18.07.2007 20:07 25,1 C 27,7 C 50 % 1013 hPa 0,0 l/m 12,3 km/h (3 Bft)
18.07.2007 20:10 25,1 C 27,6 C 51 % 1013 hPa 0,0 l/m 15,1 km/h (3 Bft)
18.07.2007 20:13 25,1 C 27,6 C 51 % 1013 hPa 0,0 l/m 9,8 km/h (2 Bft)
18.07.2007 20:16 25,1 C 27,6 C 51 % 1013 hPa 0,0 l/m 9,8 km/h (2 Bft)
18.07.2007 20:19 25,1 C 27,6 C 51 % 1013 hPa 0,0 l/m 7,2 km/h (2 Bft)
18.07.2007 20:22 25,2 C 27,4 C 53 % 1013 hPa 0,0 l/m 10,6 km/h (2 Bft)
18.07.2007 20:25 25,2 C 27,3 C 53 % 1013 hPa 0,0 l/m 10,1 km/h (2 Bft)
18.07.2007 20:28 25,2 C 27,2 C 53 % 1013 hPa 0,0 l/m 10,8 km/h (2 Bft)
18.07.2007 20:31 25,2 C 27,0 C 54 % 1013 hPa 0,0 l/m 6,7 km/h (2 Bft)
18.07.2007 20:34 25,2 C 27,0 C 54 % 1013 hPa 0,0 l/m 7,8 km/h (2 Bft)
18.07.2007 20:37 25,2 C 26,9 C 54 % 1013 hPa 0,0 l/m 9,6 km/h (2 Bft)
18.07.2007 20:40 25,2 C 26,7 C 54 % 1013 hPa 0,0 l/m 6,1 km/h (2 Bft)
18.07.2007 20:43 25,2 C 26,6 C 55 % 1013 hPa 0,0 l/m 8,3 km/h (2 Bft)
18.07.2007 20:46 25,2 C 26,4 C 55 % 1013 hPa 0,0 l/m 8,4 km/h (2 Bft)
18.07.2007 20:49 25,2 C 26,3 C 55 % 1013 hPa 0,0 l/m 7,8 km/h (2 Bft)
18.07.2007 20:52 25,2 C 26,2 C 55 % 1013 hPa 0,0 l/m 7,6 km/h (2 Bft)
18.07.2007 20:55 25,2 C 26,1 C 56 % 1013 hPa 0,0 l/m 6,1 km/h (2 Bft)
18.07.2007 20:58 25,2 C 26,0 C 56 % 1013 hPa 0,0 l/m 7,8 km/h (2 Bft)
18.07.2007 21:01 25,2 C 25,9 C 57 % 1013 hPa 0,0 l/m 4,6 km/h (1 Bft)
18.07.2007 21:04 25,2 C 25,9 C 57 % 1013 hPa 0,0 l/m 4,2 km/h (1 Bft)
18.07.2007 21:07 25,2 C 25,9 C 57 % 1013 hPa 0,0 l/m 5,1 km/h (1 Bft)
18.07.2007 21:10 25,2 C 25,6 C 58 % 1013 hPa 0,0 l/m 7,8 km/h (2 Bft)
18.07.2007 21:13 25,2 C 25,5 C 58 % 1013 hPa 0,0 l/m 11,4 km/h (2 Bft)
18.07.2007 21:16 25,2 C 25,4 C 58 % 1013 hPa 0,0 l/m 8,7 km/h (2 Bft)
18.07.2007 21:19 25,2 C 25,4 C 58 % 1013 hPa 0,0 l/m 11,4 km/h (2 Bft)
18.07.2007 21:22 25,2 C 25,2 C 59 % 1013 hPa 0,0 l/m 11,9 km/h (2 Bft)
18.07.2007 21:25 25,2 C 25,1 C 59 % 1013 hPa 0,0 l/m 10,7 km/h (2 Bft)
18.07.2007 21:28 25,2 C 25,1 C 59 % 1013 hPa 0,0 l/m 8,4 km/h (2 Bft)
18.07.2007 21:31 25,2 C 25,1 C 59 % 1013 hPa 0,0 l/m 11,4 km/h (2 Bft)
18.07.2007 21:34 25,2 C 25,0 C 59 % 1013 hPa 0,0 l/m 12,8 km/h (3 Bft)
18.07.2007 21:36 25,2 C 24,9 C 59 % 1013 hPa 0,0 l/m 10,8 km/h (2 Bft)
18.07.2007 21:40 25,2 C 24,8 C 59 % 1013 hPa 0,0 l/m 10,4 km/h (2 Bft)
18.07.2007 21:43 25,2 C 24,8 C 59 % 1013 hPa 0,0 l/m 9,7 km/h (2 Bft)
18.07.2007 21:46 25,2 C 24,7 C 59 % 1013 hPa 0,0 l/m 17,5 km/h (3 Bft)
18.07.2007 21:49 25,2 C 24,7 C 60 % 1013 hPa 0,0 l/m 13,8 km/h (3 Bft)
18.07.2007 21:52 25,2 C 24,7 C 60 % 1013 hPa 0,0 l/m 13,2 km/h (3 Bft)
18.07.2007 21:55 25,2 C 24,6 C 60 % 1013 hPa 0,0 l/m 16,3 km/h (3 Bft)
18.07.2007 21:58 25,2 C 24,5 C 60 % 1013 hPa 0,0 l/m 13,9 km/h (3 Bft)
18.07.2007 22:01 25,2 C 24,5 C 60 % 1013 hPa 0,0 l/m 14,9 km/h (3 Bft)
18.07.2007 22:04 25,2 C 24,4 C 60 % 1013 hPa 0,0 l/m 12,8 km/h (3 Bft)
18.07.2007 22:07 25,2 C 24,4 C 61 % 1013 hPa 0,0 l/m 10,9 km/h (2 Bft)
18.07.2007 22:10 25,2 C 24,4 C 61 % 1013 hPa 0,0 l/m 15,4 km/h (3 Bft)
18.07.2007 22:13 25,1 C 24,3 C 61 % 1013 hPa 0,0 l/m 12,9 km/h (3 Bft)
18.07.2007 22:16 25,1 C 24,2 C 61 % 1013 hPa 0,0 l/m 14,0 km/h (3 Bft)
18.07.2007 22:19 25,0 C 24,2 C 61 % 1014 hPa 0,0 l/m 16,0 km/h (3 Bft)
18.07.2007 22:22 25,0 C 24,1 C 61 % 1014 hPa 0,0 l/m 11,9 km/h (2 Bft)
18.07.2007 22:25 25,0 C 24,0 C 61 % 1014 hPa 0,0 l/m 14,6 km/h (3 Bft)
18.07.2007 22:28 25,0 C 24,0 C 61 % 1014 hPa 0,0 l/m 13,5 km/h (3 Bft)
18.07.2007 22:31 25,0 C 23,9 C 61 % 1014 hPa 0,0 l/m 14,3 km/h (3 Bft)
18.07.2007 22:34 25,0 C 23,8 C 61 % 1014 hPa 0,0 l/m 13,5 km/h (3 Bft)
18.07.2007 22:37 25,0 C 23,8 C 61 % 1014 hPa 0,0 l/m 11,7 km/h (2 Bft)
18.07.2007 22:40 24,9 C 23,8 C 61 % 1013 hPa 0,0 l/m 20,1 km/h (4 Bft)
18.07.2007 22:43 24,9 C 23,7 C 61 % 1013 hPa 0,0 l/m 13,0 km/h (3 Bft)
18.07.2007 22:46 24,9 C 23,7 C 61 % 1013 hPa 0,0 l/m 18,7 km/h (3 Bft)
18.07.2007 22:49 24,9 C 23,6 C 61 % 1014 hPa 0,0 l/m 18,7 km/h (3 Bft)
18.07.2007 22:52 24,9 C 23,6 C 61 % 1014 hPa 0,0 l/m 14,8 km/h (3 Bft)
18.07.2007 22:55 24,8 C 23,6 C 61 % 1014 hPa 0,0 l/m 13,8 km/h (3 Bft)
18.07.2007 22:58 24,8 C 23,6 C 61 % 1014 hPa 0,0 l/m 13,0 km/h (3 Bft)
18.07.2007 23:01 24,8 C 23,6 C 61 % 1014 hPa 0,0 l/m 14,0 km/h (3 Bft)
18.07.2007 23:04 24,8 C 23,6 C 61 % 1014 hPa 0,0 l/m 17,1 km/h (3 Bft)
18.07.2007 23:07 24,8 C 23,6 C 61 % 1014 hPa 0,0 l/m 18,0 km/h (3 Bft)
18.07.2007 23:10 24,8 C 23,6 C 61 % 1014 hPa 0,0 l/m 14,3 km/h (3 Bft)
18.07.2007 23:13 24,8 C 23,6 C 61 % 1014 hPa 0,0 l/m 12,4 km/h (3 Bft)
18.07.2007 23:16 24,8 C 23,6 C 61 % 1014 hPa 0,0 l/m 13,3 km/h (3 Bft)
18.07.2007 23:19 24,8 C 23,5 C 61 % 1014 hPa 0,0 l/m 12,5 km/h (3 Bft)
18.07.2007 23:22 24,8 C 23,4 C 62 % 1014 hPa 0,0 l/m 13,5 km/h (3 Bft)
18.07.2007 23:25 24,8 C 23,4 C 62 % 1014 hPa 0,0 l/m 14,1 km/h (3 Bft)
18.07.2007 23:28 24,8 C 23,4 C 62 % 1014 hPa 0,0 l/m 10,3 km/h (2 Bft)
18.07.2007 23:31 24,8 C 23,3 C 62 % 1014 hPa 0,0 l/m 12,9 km/h (3 Bft)
18.07.2007 23:34 24,8 C 23,3 C 62 % 1014 hPa 0,0 l/m 1,9 km/h (1 Bft)
18.07.2007 23:37 24,7 C 23,3 C 62 % 1014 hPa 0,0 l/m 11,5 km/h (2 Bft)
18.07.2007 23:40 24,7 C 23,3 C 62 % 1013 hPa 0,0 l/m 4,8 km/h (1 Bft)
18.07.2007 23:43 24,8 C 23,2 C 62 % 1013 hPa 0,0 l/m 10,9 km/h (2 Bft)
18.07.2007 23:46 24,7 C 23,2 C 62 % 1013 hPa 0,0 l/m 14,9 km/h (3 Bft)
18.07.2007 23:49 24,7 C 23,2 C 62 % 1014 hPa 0,0 l/m 11,6 km/h (2 Bft)
18.07.2007 23:52 24,7 C 23,2 C 61 % 1014 hPa 0,0 l/m 12,0 km/h (2 Bft)
18.07.2007 23:55 24,7 C 23,2 C 61 % 1014 hPa 0,0 l/m 16,1 km/h (3 Bft)
18.07.2007 23:58 24,7 C 23,3 C 61 % 1014 hPa 0,0 l/m 10,3 km/h (2 Bft)
_ Min-Zeit 06:30 05:09 16:19 00:00 - 00:00
Minimum _ 23,2 C 20,0 C 45 % 1012 hPa - 0,0 km/h (0 Bft)
_ Max-Zeit 19:22 16:31 06:36 13:05 00:00 12:41
Maximum _ 25,2 C 29,6 C 76 % 1014 hPa 0,0 l/m 22,3 km/h
N-NO (4 Bft)
Durchschnitt _ 24,5 C 25,1 C 60 % 1013 hPa #0,0 l/m 8,3 km/h (2 Bft)